When you browse on this site, cookies collect data to enhance your experience and personalize the content and advertising you see.
Visit our Privacy Policy to learn more. By continuing to use the site, you agree to this use of cookies and data.
  • în România
  • Lista ţărilor
  • Pe 7 zile
  • Temperatura apei
  • Hartă satelitară
  • Meteo pe hartă
  • Widget-uri
  • user-avatar
    Intrare

    Meteo pe oră la Azzano San Paolo

    Astăzi, 18 Iulie, Joi

    Timp Temperatura Precipitaţii Vânt Presiune Umiditate
    00:00 +21°C° 0 mm 1 m/s 737 mmHg 61%
    01:00 +21°C° 0 mm 1 m/s 737 mmHg 61%
    02:00 +21°C° 0.1 mm 1 m/s 737 mmHg 64%
    03:00 +20°C° 0.1 mm 1 m/s 737 mmHg 66%
    04:00 +20°C° 0.1 mm 1 m/s 737 mmHg 69%
    05:00 +21°C° 0.2 mm 1 m/s 737 mmHg 69%
    06:00 +21°C° 0.2 mm 1 m/s 737 mmHg 70%
    07:00 +22°C° 0 mm 1 m/s 738 mmHg 68%
    08:00 +23°C° 0.3 mm 1 m/s 738 mmHg 65%
    09:00 +25°C° 0.3 mm 1 m/s 738 mmHg 62%
    10:00 +26°C° 0.3 mm 1 m/s 738 mmHg 58%
    11:00 +27°C° 0.6 mm 1 m/s 738 mmHg 56%
    12:00 +27°C° 0.6 mm 1 m/s 738 mmHg 55%
    13:00 +28°C° 0.6 mm 1 m/s 738 mmHg 53%
    14:00 +28°C° 0.4 mm 2 m/s 738 mmHg 53%
    15:00 +28°C° 0.4 mm 2 m/s 738 mmHg 53%
    16:00 +29°C° 0.4 mm 2 m/s 738 mmHg 54%
    17:00 +28°C° 0.3 mm 2 m/s 738 mmHg 59%
    18:00 +27°C° 0.3 mm 1 m/s 738 mmHg 64%
    19:00 +26°C° 0.3 mm 1 m/s 738 mmHg 68%
    20:00 +24°C° 0 mm 1 m/s 738 mmHg 71%
    21:00 +23°C° 0 mm 1 m/s 739 mmHg 73%
    22:00 +21°C° 0 mm 2 m/s 739 mmHg 75%
    23:00 +20°C° 0 mm 2 m/s 739 mmHg 76%

    Mâine, 19 Iulie, Vineri

    Timp Temperatura Precipitaţii Vânt Presiune Umiditate
    00:00 +21°C° 0 mm 1 m/s 740 mmHg 76%
    01:00 +21°C° 0 mm 1 m/s 740 mmHg 76%
    02:00 +20°C° 0 mm 1 m/s 740 mmHg 76%
    03:00 +20°C° 0 mm 1 m/s 740 mmHg 75%
    04:00 +20°C° 0 mm 1 m/s 740 mmHg 75%
    05:00 +21°C° 0 mm 1 m/s 740 mmHg 74%
    06:00 +22°C° 0 mm 1 m/s 740 mmHg 73%
    07:00 +23°C° 0 mm 1 m/s 740 mmHg 72%
    08:00 +24°C° 0.1 mm 1 m/s 740 mmHg 67%
    09:00 +26°C° 0.1 mm 1 m/s 740 mmHg 62%
    10:00 +27°C° 0.1 mm 1 m/s 740 mmHg 58%
    11:00 +28°C° 0.1 mm 2 m/s 740 mmHg 55%
    12:00 +28°C° 0.1 mm 2 m/s 740 mmHg 53%
    13:00 +29°C° 0.1 mm 2 m/s 740 mmHg 51%
    14:00 +29°C° 0.2 mm 2 m/s 740 mmHg 52%
    15:00 +29°C° 0.2 mm 2 m/s 740 mmHg 53%
    16:00 +29°C° 0.2 mm 2 m/s 740 mmHg 54%
    17:00 +28°C° 0.2 mm 1 m/s 740 mmHg 58%
    18:00 +28°C° 0.2 mm 1 m/s 740 mmHg 63%
    19:00 +27°C° 0.2 mm 1 m/s 740 mmHg 67%
    20:00 +25°C° 0 mm 1 m/s 741 mmHg 69%
    21:00 +24°C° 0 mm 1 m/s 741 mmHg 72%
    22:00 +23°C° 0 mm 1 m/s 741 mmHg 74%
    23:00 +23°C° 0 mm 1 m/s 741 mmHg 75%

    Poimâine, 20 Iulie, Sâmbătă

    Timp Temperatura Precipitaţii Vânt Presiune Umiditate
    00:00 +22°C° 0 mm 1 m/s 741 mmHg 76%
    01:00 +22°C° 0 mm 1 m/s 741 mmHg 77%
    02:00 +22°C° 0 mm 1 m/s 742 mmHg 77%
    03:00 +21°C° 0 mm 1 m/s 742 mmHg 77%
    04:00 +21°C° 0 mm 1 m/s 742 mmHg 77%
    05:00 +22°C° 0 mm 1 m/s 742 mmHg 76%
    06:00 +23°C° 0 mm 1 m/s 742 mmHg 75%
    07:00 +22°C° 0 mm 0 m/s 742 mmHg 73%
    08:00 +25°C° 0 mm 1 m/s 742 mmHg 69%
    09:00 +27°C° 0 mm 1 m/s 742 mmHg 64%
    10:00 +28°C° 0 mm 2 m/s 742 mmHg 60%
    11:00 +29°C° 0.2 mm 2 m/s 742 mmHg 58%
    12:00 +29°C° 0.2 mm 2 m/s 742 mmHg 57%
    13:00 +30°C° 0.2 mm 2 m/s 742 mmHg 56%
    14:00 +30°C° 0.3 mm 2 m/s 742 mmHg 56%
    15:00 +30°C° 0.3 mm 1 m/s 742 mmHg 56%
    16:00 +30°C° 0.3 mm 1 m/s 742 mmHg 56%
    17:00 +29°C° 0.2 mm 1 m/s 742 mmHg 61%
    18:00 +28°C° 0.2 mm 1 m/s 742 mmHg 66%
    19:00 +27°C° 0.2 mm 1 m/s 743 mmHg 71%
    20:00 +26°C° 0 mm 1 m/s 743 mmHg 73%
    21:00 +25°C° 0 mm 1 m/s 743 mmHg 75%
    22:00 +24°C° 0 mm 1 m/s 744 mmHg 77%
    23:00 +23°C° 0 mm 1 m/s 744 mmHg 77%

    21 Iulie, Duminică

    Timp Temperatura Precipitaţii Vânt Presiune Umiditate
    00:00 +23°C° 0 mm 1 m/s 744 mmHg 77%
    01:00 +23°C° 0 mm 1 m/s 744 mmHg 78%
    02:00 +22°C° 0 mm 1 m/s 744 mmHg 78%
    03:00 +22°C° 0 mm 1 m/s 744 mmHg 78%
    04:00 +22°C° 0 mm 1 m/s 744 mmHg 79%
    05:00 +23°C° 0 mm 1 m/s 744 mmHg 77%
    06:00 +24°C° 0 mm 1 m/s 744 mmHg 75%
    07:00 +22°C° 0 mm 0 m/s 744 mmHg 73%
    08:00 +26°C° 0 mm 1 m/s 744 mmHg 68%
    09:00 +28°C° 0 mm 1 m/s 744 mmHg 62%
    10:00 +29°C° 0 mm 1 m/s 745 mmHg 57%
    11:00 +30°C° 0 mm 2 m/s 744 mmHg 54%
    12:00 +31°C° 0 mm 2 m/s 744 mmHg 51%
    13:00 +32°C° 0 mm 2 m/s 744 mmHg 48%
    14:00 +32°C° 0 mm 2 m/s 744 mmHg 49%
    15:00 +32°C° 0 mm 2 m/s 744 mmHg 49%
    16:00 +32°C° 0 mm 2 m/s 744 mmHg 49%
    17:00 +31°C° 0 mm 2 m/s 744 mmHg 55%
    18:00 +30°C° 0 mm 1 m/s 744 mmHg 60%
    19:00 +29°C° 0 mm 1 m/s 744 mmHg 66%
    20:00 +28°C° 0.1 mm 1 m/s 744 mmHg 69%
    21:00 +27°C° 0.1 mm 1 m/s 745 mmHg 71%
    22:00 +26°C° 0.1 mm 1 m/s 745 mmHg 74%
    23:00 +25°C° 0 mm 1 m/s 745 mmHg 74%

    22 Iulie, Luni

    Timp Temperatura Precipitaţii Vânt Presiune Umiditate
    00:00 +25°C° 0 mm 1 m/s 745 mmHg 75%
    01:00 +25°C° 0 mm 1 m/s 745 mmHg 76%
    02:00 +24°C° 0 mm 1 m/s 745 mmHg 77%
    03:00 +24°C° 0 mm 1 m/s 745 mmHg 77%
    04:00 +24°C° 0 mm 1 m/s 745 mmHg 78%
    05:00 +24°C° 0 mm 1 m/s 745 mmHg 76%
    06:00 +25°C° 0 mm 1 m/s 745 mmHg 74%
    07:00 +24°C° 0 mm 0 m/s 746 mmHg 72%
    08:00 +28°C° 0 mm 1 m/s 746 mmHg 67%
    09:00 +29°C° 0 mm 1 m/s 746 mmHg 62%
    10:00 +31°C° 0 mm 1 m/s 746 mmHg 56%
    11:00 +32°C° 0 mm 1 m/s 745 mmHg 54%
    12:00 +34°C° 0 mm 2 m/s 745 mmHg 51%
    13:00 +35°C° 0 mm 2 m/s 745 mmHg 48%
    14:00 +35°C° 0.1 mm 2 m/s 745 mmHg 48%
    15:00 +35°C° 0.1 mm 2 m/s 745 mmHg 47%
    16:00 +35°C° 0.1 mm 2 m/s 744 mmHg 46%
    17:00 +34°C° 0.1 mm 2 m/s 744 mmHg 51%
    18:00 +32°C° 0.1 mm 1 m/s 744 mmHg 56%
    19:00 +30°C° 0.1 mm 1 m/s 744 mmHg 61%
    20:00 +29°C° 0.2 mm 1 m/s 744 mmHg 64%
    21:00 +28°C° 0.2 mm 1 m/s 745 mmHg 67%
    22:00 +27°C° 0.2 mm 1 m/s 745 mmHg 69%
    23:00 +26°C° 0 mm 1 m/s 745 mmHg 70%

    23 Iulie, Marţi

    Timp Temperatura Precipitaţii Vânt Presiune Umiditate
    00:00 +26°C° 0 mm 1 m/s 745 mmHg 70%
    01:00 +26°C° 0 mm 1 m/s 745 mmHg 71%
    02:00 +25°C° 0 mm 1 m/s 744 mmHg 71%
    03:00 +25°C° 0 mm 1 m/s 744 mmHg 72%
    04:00 +25°C° 0 mm 1 m/s 744 mmHg 72%
    05:00 +26°C° 0 mm 1 m/s 744 mmHg 71%
    06:00 +26°C° 0 mm 1 m/s 744 mmHg 70%
    07:00 +27°C° 0 mm 1 m/s 744 mmHg 69%
    08:00 +29°C° 0 mm 1 m/s 744 mmHg 63%
    09:00 +31°C° 0 mm 1 m/s 744 mmHg 58%
    10:00 +32°C° 0 mm 1 m/s 744 mmHg 53%
    11:00 +33°C° 0 mm 1 m/s 743 mmHg 51%
    12:00 +35°C° 0 mm 2 m/s 743 mmHg 48%
    13:00 +35°C° 0 mm 2 m/s 743 mmHg 46%
    14:00 +35°C° 0.1 mm 2 m/s 743 mmHg 46%
    15:00 +35°C° 0.1 mm 2 m/s 742 mmHg 46%
    16:00 +35°C° 0.1 mm 2 m/s 742 mmHg 46%
    17:00 +34°C° 0 mm 2 m/s 742 mmHg 51%
    18:00 +32°C° 0 mm 1 m/s 742 mmHg 55%
    19:00 +31°C° 0 mm 1 m/s 742 mmHg 59%
    20:00 +30°C° 0.1 mm 1 m/s 742 mmHg 61%
    21:00 +29°C° 0.1 mm 1 m/s 742 mmHg 63%
    22:00 +27°C° 0.1 mm 1 m/s 742 mmHg 65%
    23:00 +27°C° 0.1 mm 1 m/s 742 mmHg 67%
    Arată mai mult